Regional Weather Roundup
Issued by NWS

Home | Current Version | Previous Version | Text Only | Print | Product List | Glossary Off
Versions: 1 2 3 4 5 6 7 8 9 10 11 12 13 14 15 16 17 18 19 20 21 22 23 24 25 26 27 28 29 30 31 32 33 34 35 36 37 38 39 40 41 42 43 44 45 46 47 48 49 50

000
ASUS45 KBOI 261710
RWRID
WEATHER ROUNDUP FOR IDAHO
NATIONAL WEATHER SERVICE BOISE ID
1100 AM MDT THU MAR 26 2015

NOTE: "FAIR" INDICATES FEW OR NO CLOUDS BELOW 12000 FEET
WITH NO SIGNIFICANT WEATHER AND/OR OBSTRUCTIONS TO VISIBILITY

IDZ012-014-261800-
SOUTHWEST IDAHO


CITY           SKY/WX    TMP DP  RH WIND       PRES   REMARKS
BOISE          SUNNY     48  37  65 VRB3      30.42S
CALDWELL       SUNNY     46  34  61 N7        30.45S
$$

IDZ016-017-261800-
SOUTHCENTRAL IDAHO


CITY           SKY/WX    TMP DP  RH WIND       PRES   REMARKS
BURLEY         SUNNY     49  32  52 SW7       30.41S
JEROME         SUNNY     47  33  58 SW9       30.43S
TWIN FALLS     SUNNY     52  33  48 W9        30.43R
$$

IDZ019>023-261800-
SOUTHEAST IDAHO


CITY           SKY/WX    TMP DP  RH WIND       PRES   REMARKS
IDAHO FALLS    MOSUNNY   46  34  62 SW15      30.41S
POCATELLO      MOSUNNY   48  34  58 SW13      30.43R
REXBURG        MOSUNNY   44  32  62 SW16      30.38F
$$

IDZ006-010-011-018-031-032-261800-
CENTRAL IDAHO MOUNTAINS


CITY           SKY/WX    TMP DP  RH WIND       PRES   REMARKS
MCCALL         CLOUDY    32  32 100 CALM      30.40S FOG
HAILEY         MOSUNNY   46  30  53 SE8       30.42R
STANLEY          N/A     38  25  59 VRB3      30.44F
SALMON         PTSUNNY   50  32  50 N3        30.37S
CHALLIS        SUNNY     47  27  45 SE7       30.40S
$$

IDZ002-004-006-007-026-261800-
NORTHERN IDAHO


CITY           SKY/WX    TMP DP  RH WIND       PRES   REMARKS
LEWISTON       PTSUNNY   55  45  68 NE5       30.35R
LOWELL           N/A     50  43  77 CALM      30.41S
COEUR D`ALENE  PTSUNNY   50  45  81 S13       30.32S
MULLAN PASS    FOG       35  35 100 VRB5      30.32R VSB<1/4 WCI  31
$$



USA.gov is the U.S. government's official web portal to all federal, state and local government web resources and services.